{"data":{"norad_id":66522,"epoch":"2026-09-20T08:47:31.316352Z","epoch_age_seconds":100692,"freshness":"FRESH","line1":"1 66522U 25265G   26263.36633468  .00009686  00000+0  36139-3 0  9992","line2":"2 66522  43.0018 258.7694 0001364 267.1130  92.9566 15.27548690 46884","mean_motion":15.2754869,"eccentricity":0.0001364,"inclination_deg":43.0018,"raan_deg":258.7694,"arg_perigee_deg":267.113,"mean_anomaly_deg":92.9566,"bstar":0.00036139,"rev_number":4688,"period_min":94.268680888987,"perigee_km":482.20697247306,"apogee_km":484.07872961642,"semimajor_km":6861.2798510447,"source":"CELESTRAK","updated_at":"2026-09-21T09:00:35.963870Z"}}